Starlink 35767

operational
NORAD ID: 67058 Int'l Des: 2025-294 Owner: SPXS Country: US Constellation: starlink
LEOCIRCULAR

Über Starlink 35767

Beschreibung wird geladen...

Live-Position

3D-Globus wird geladen...

Nächste Überflüge

Höhenverlauf

Altitude vs Time

uPlot chart will show altitude changes over time

Zweizeiliger Elementsatz

1 67058C 25294AE 25346.87479167 .01025500 00000+0 14710-2 0 3460
2 67058 43.0028 182.5133 0009361 279.4450 326.9632 16.03343564 15
Epoch: 12. Dez. 2025 • Age: 59 hours

Aktueller Status

Höhe 256.1 km
Geschwindigkeit 7.76 km/s
Subsatellitenpunkt -18.63°S, 92.2°W
Startdatum 11. Dez. 2025
Alter 2 days
Typ internet

Technische Details

Klassifizierung Payload
Masse 575.00 kg
Trockenmasse 530.00 kg
Gesamtmasse 575.00 kg
Länge 0.30 m
Durchmesser 4.10 m
Spannweite 29.00 m
Form Box + pan
Hersteller SPXS
Bus-Typ Starlink V2MO
Phasenstatus In Orbit
Besitzer/Staat SPXS/US

Große Konstellationen

Loading constellations...